Theta_e
326 326 326 325 323 322 322 322 322 322 322 322 321 321 321 321 322 323 323 322 324 325 325 326 326 326 326 326 326 325 326 326 325 324 324 325 326 326 323 317 316 315 315 312 311 312 311 312 313 313 313 316 319 322 321 320 323 325 326 325 323 323 322 320 320 318 319 320 318 319 318 318 318 317 316 316 317 317 317 317 319 323 326 334 338 337 338 336
326 325 326 325 323 322 321 323 323 322 323 322 322 321 322 322 322 323 323 323 324 325 325 325 326 326 326 326 326 326 326 325 325 325 325 326 325 326 327 324 320 320 318 313 311 313 311 312 314 313 313 316 320 320 321 321 321 324 327 324 323 324 321 319 319 317 319 319 318 319 318 318 318 317 317 316 317 316 316 317 318 323 324 330 338 337 337 336
327 326 326 324 323 322 322 323 323 323 323 323 322 321 322 323 323 323 323 324 324 324 325 325 326 326 326 326 325 326 326 325 326 326 326 325 326 326 327 327 326 324 321 313 311 312 311 312 313 313 312 315 318 319 321 322 320 321 323 324 325 323 320 318 317 317 318 318 317 318 318 318 318 316 316 316 317 316 315 316 316 322 324 328 337 337 336 337
327 326 325 324 323 322 322 323 323 323 323 322 322 321 323 324 324 324 324 325 325 324 324 325 325 326 326 325 326 326 325 325 326 326 326 326 326 325 326 328 326 325 322 314 311 311 311 312 313 312 312 314 317 319 319 320 320 320 321 323 323 320 319 317 316 317 318 318 317 318 318 318 317 316 316 315 316 315 315 316 315 318 323 327 335 337 335 337
325 326 325 324 323 323 323 323 323 323 322 322 322 321 323 324 324 324 324 325 324 324 324 324 325 325 326 325 326 325 324 327 327 325 327 326 326 326 327 326 324 324 321 313 311 311 311 312 313 311 311 313 316 318 318 319 320 319 320 320 319 319 318 315 315 317 317 318 317 318 318 317 317 315 315 315 315 316 314 316 316 316 323 327 333 337 335 335
324 325 324 324 323 323 323 323 323 323 322 322 322 322 323 324 324 324 324 324 324 324 323 324 324 325 325 325 327 324 323 328 323 321 326 325 326 327 325 323 323 322 316 312 312 312 311 312 312 311 312 313 316 317 316 317 319 318 320 318 317 318 316 315 315 316 317 318 317 318 317 316 316 315 316 315 315 316 315 316 319 321 324 325 331 335 335 335
324 324 325 323 323 323 323 322 322 323 322 321 322 322 323 323 323 324 324 324 323 323 323 323 323 324 324 325 326 322 321 323 317 316 321 322 324 325 323 321 322 319 313 311 312 311 312 312 311 311 312 313 314 316 316 316 317 317 318 318 317 316 315 314 314 314 316 316 316 317 317 316 315 315 315 316 315 315 315 315 318 324 325 326 330 332 333 335
324 324 324 323 323 323 323 322 322 322 321 321 322 323 323 323 323 323 323 323 323 322 322 322 322 322 323 323 322 320 319 320 317 314 316 319 321 321 322 322 321 315 311 311 312 311 312 312 311 311 312 313 313 315 316 317 316 316 317 317 316 315 314 313 313 314 315 314 315 316 317 316 315 315 315 316 316 315 317 317 318 323 326 329 331 331 333 334
323 323 323 322 323 323 322 322 322 322 321 321 322 322 323 322 322 322 322 322 322 322 322 321 321 319 319 319 317 317 318 319 318 313 313 315 315 318 321 321 317 313 311 311 311 312 312 312 312 311 312 312 312 314 316 316 316 316 316 317 315 314 314 313 313 313 314 314 314 315 316 316 314 314 316 316 316 316 319 321 320 322 325 328 330 331 332 333
323 323 323 323 323 322 322 322 321 322 321 321 322 322 322 322 322 322 321 322 321 321 320 321 320 315 315 316 315 318 319 317 316 313 313 313 312 315 318 317 314 312 311 311 311 312 312 312 312 312 313 313 312 314 315 315 315 316 316 316 315 314 314 314 314 313 314 314 314 315 316 315 314 314 316 316 317 317 318 320 320 321 322 324 327 328 329 331
323 323 323 323 322 322 322 322 321 321 321 321 321 321 321 321 321 321 321 321 320 320 320 320 316 312 316 317 314 318 318 316 314 312 313 314 312 313 315 315 313 312 311 311 312 312 312 312 312 313 313 312 312 313 315 315 315 316 316 315 315 314 314 314 314 313 314 314 313 315 316 315 314 315 315 316 316 316 316 317 319 320 320 322 325 327 327 328
323 323 323 322 322 322 322 322 321 321 321 320 320 320 320 320 320 320 320 320 320 319 319 319 314 313 318 318 315 316 315 316 315 312 314 315 314 313 313 313 312 311 311 311 312 312 312 313 313 313 312 311 311 312 314 314 315 315 316 316 315 314 314 314 314 314 315 314 313 314 315 315 316 316 315 316 315 315 316 315 317 319 319 321 322 326 328 326
323 323 322 322 322 321 321 321 320 320 320 320 319 319 319 320 320 319 319 319 319 319 319 318 315 315 318 316 315 316 315 316 315 314 315 315 315 313 313 312 311 311 311 312 313 313 312 312 313 313 312 312 311 312 313 314 315 315 315 315 315 315 315 315 315 314 315 314 314 314 315 316 317 316 316 316 315 315 315 315 317 318 318 319 320 325 329 327
323 323 322 322 321 321 320 320 319 320 319 319 318 318 319 319 319 319 319 319 319 318 319 318 316 317 320 316 314 315 315 314 314 314 314 314 314 313 312 312 312 312 311 313 313 314 313 312 313 313 313 313 312 312 312 314 314 314 314 315 317 316 314 316 315 314 315 314 314 314 314 316 316 316 316 315 315 314 315 315 316 318 318 318 320 325 329 328
323 322 322 321 321 320 320 319 319 319 319 318 318 318 319 319 318 318 318 318 318 317 318 317 317 319 320 315 312 314 314 313 313 314 313 313 313 312 312 312 312 312 312 312 313 313 312 312 313 313 313 313 313 313 312 313 313 313 314 315 317 316 315 316 315 314 315 314 313 314 314 315 315 315 315 314 315 315 315 316 316 317 318 317 321 325 328 328
322 322 321 320 320 320 319 319 318 318 317 317 318 318 318 318 317 317 317 317 317 317 317 317 318 320 319 313 313 314 314 314 314 313 313 314 313 313 313 312 312 312 312 312 311 312 311 312 313 314 313 312 313 313 314 313 313 314 315 315 316 315 315 316 314 315 316 314 313 314 314 315 315 314 314 313 314 314 315 315 316 317 317 318 320 323 324 325
322 321 321 320 320 319 319 318 317 317 317 317 318 317 317 316 316 316 316 316 317 316 316 317 317 319 317 313 314 314 314 315 314 313 314 315 314 314 313 313 313 312 312 312 311 312 311 312 313 314 313 312 312 313 315 314 313 314 314 315 316 314 314 315 314 315 316 316 314 314 315 315 315 315 314 314 314 314 314 315 316 316 317 318 320 320 320 321
321 321 320 319 319 319 318 317 316 316 317 317 317 316 315 315 315 316 316 316 317 316 316 315 315 317 315 312 314 314 315 315 314 313 313 315 315 314 313 314 313 312 312 311 312 312 312 313 313 314 314 312 312 312 315 316 314 315 314 314 316 315 314 315 315 315 316 315 315 315 314 314 315 315 314 314 314 314 314 315 315 316 316 318 319 318 318 319
321 320 319 319 319 318 317 317 317 317 317 316 315 315 315 315 315 316 316 316 317 317 318 314 312 315 313 312 313 313 315 315 314 313 313 315 314 314 314 314 313 312 312 312 313 312 312 315 314 314 314 312 312 311 314 317 314 315 315 313 316 316 314 315 315 314 315 315 315 315 314 314 314 314 315 314 314 314 314 315 316 316 317 317 319 318 318 320
320 319 319 318 318 318 317 317 317 316 316 315 315 315 316 316 317 316 315 316 316 316 316 312 312 313 310 312 313 314 315 314 314 314 313 314 314 315 314 313 314 313 312 313 314 313 313 316 314 313 313 312 312 312 313 315 314 315 315 312 315 317 314 315 316 314 314 315 315 315 315 315 315 315 316 315 315 315 315 316 317 318 318 319 319 319 320 321
319 319 318 318 317 317 317 316 316 315 314 315 315 315 316 316 317 317 315 315 315 312 312 311 311 312 311 313 314 314 314 313 314 314 313 314 314 315 314 314 313 313 313 313 315 314 313 316 314 312 313 312 312 313 313 314 314 314 315 314 315 317 314 314 315 313 314 315 315 315 315 315 315 315 316 316 315 315 316 316 317 317 318 319 319 320 322 320
318 318 318 317 317 317 316 316 315 314 314 314 315 315 315 315 315 315 314 314 314 312 312 311 311 313 314 314 314 313 313 313 315 315 314 314 314 314 314 314 313 313 314 314 316 316 315 315 314 311 313 313 313 313 313 314 315 315 316 315 314 316 315 314 315 313 313 314 315 317 317 316 316 316 316 316 316 315 316 316 316 318 317 318 318 319 321 320
318 318 317 317 317 316 316 315 314 314 314 315 316 315 314 314 312 312 312 312 311 311 312 311 311 313 314 314 314 313 312 312 315 316 314 314 314 314 315 314 313 315 315 314 315 316 315 315 314 315 314 314 314 313 314 314 315 317 316 314 315 317 315 314 315 314 313 313 315 317 318 317 315 316 316 316 316 316 317 318 318 319 319 318 318 319 321 321
318 317 317 316 316 316 315 314 314 314 314 315 315 316 314 312 312 311 311 310 310 310 312 311 312 313 314 314 314 313 311 311 315 316 314 314 314 314 314 313 313 315 315 314 314 315 316 314 315 317 315 315 315 314 316 315 314 318 319 318 319 319 317 317 316 314 314 315 316 316 316 319 316 314 315 314 316 316 316 319 319 321 323 322 323 325 326 326
317 317 317 315 315 315 314 314 314 314 314 314 315 315 313 311 311 311 310 309 311 311 311 312 314 314 314 314 314 314 312 312 315 315 314 314 314 313 314 313 313 314 315 315 314 315 316 312 313 317 315 317 317 315 318 318 314 316 322 321 319 319 318 319 318 316 315 317 318 316 317 323 322 315 315 314 315 316 316 319 319 322 326 326 327 328 330 331
317 316 316 315 315 315 314 315 314 314 314 314 315 314 313 311 310 313 312 309 310 312 311 312 314 314 314 314 315 315 312 313 315 315 314 314 315 314 313 313 314 314 314 314 315 316 314 311 314 319 318 320 319 316 319 321 314 312 322 324 319 322 324 322 322 319 316 317 318 317 317 322 322 317 317 318 317 317 317 320 321 320 322 323 324 323 325 326
316 316 315 314 315 314 314 315 314 313 314 314 314 313 313 311 310 313 314 312 311 311 310 311 312 314 314 314 315 314 313 314 315 314 314 314 315 314 313 314 315 315 314 314 317 316 313 312 317 320 320 322 319 316 320 320 316 317 325 327 321 324 327 325 324 320 318 318 318 318 318 319 321 319 318 319 318 318 318 319 321 319 317 319 321 321 322 322
316 315 315 314 314 314 314 314 313 313 313 313 313 313 314 311 309 312 313 313 312 311 310 310 310 313 315 314 314 313 313 315 316 315 314 313 313 313 314 314 314 316 314 313 316 317 315 316 319 320 319 321 318 320 325 320 317 322 325 326 324 324 326 325 322 319 320 320 319 320 319 317 320 320 318 319 317 317 318 317 318 318 317 319 321 322 323 324
316 315 315 314 314 313 313 313 313 313 313 313 313 314 312 309 311 314 312 312 312 310 310 310 310 314 315 313 313 313 313 314 315 315 312 312 313 312 314 314 313 315 315 316 319 319 317 315 318 320 319 320 319 320 328 326 319 322 322 324 326 325 324 322 321 320 319 321 323 323 319 316 320 320 316 317 317 317 318 316 318 320 322 324 325 324 323 324
315 315 314 314 314 313 313 313 313 312 313 313 312 312 311 310 312 314 312 312 313 311 309 310 311 315 314 313 313 313 313 314 314 313 312 313 313 312 314 315 313 317 320 323 322 317 314 312 315 320 318 317 316 316 323 326 322 323 323 323 324 322 322 320 321 319 317 322 325 323 320 316 319 321 317 316 317 317 317 316 318 321 323 324 325 324 321 320
315 315 314 314 313 313 313 312 312 312 312 312 311 310 310 311 312 313 313 313 314 312 309 309 312 314 314 313 314 313 314 314 313 313 313 313 313 313 315 315 316 320 322 323 321 316 314 313 316 318 314 314 316 316 319 320 320 324 324 322 321 320 320 319 319 318 319 323 321 318 321 319 317 319 317 315 315 314 315 316 318 321 323 323 323 322 319 318
314 315 314 313 313 312 312 312 312 312 312 311 310 309 310 312 313 314 314 313 314 313 310 310 312 314 313 313 314 313 315 316 314 314 314 314 314 313 315 316 317 319 319 320 322 321 319 317 316 317 313 314 318 318 318 317 318 323 322 319 322 322 319 318 320 320 321 321 315 313 318 320 317 315 314 315 315 314 315 317 320 321 322 324 324 322 321 321
314 314 314 313 312 312 312 312 311 312 312 311 309 309 312 313 313 314 313 312 314 313 311 311 312 313 313 313 313 314 317 316 314 313 314 315 314 314 316 317 317 317 317 319 321 322 322 318 317 317 314 315 318 316 316 316 317 320 319 318 323 323 317 318 321 321 321 318 315 314 316 318 318 315 315 315 313 315 317 318 321 320 319 322 323 321 322 323
314 314 313 312 312 312 312 311 312 312 311 311 311 310 314 314 314 314 312 312 314 312 311 311 312 313 313 313 314 314 317 317 314 314 315 315 315 315 316 317 317 317 317 318 318 319 320 318 317 318 317 317 319 318 318 317 317 320 321 320 321 321 320 319 320 324 325 318 314 314 317 321 320 316 318 317 315 318 318 316 319 319 318 320 321 320 322 324
314 313 312 312 312 312 312 311 312 312 311 312 311 311 314 314 314 314 312 313 313 312 312 312 312 313 313 314 315 315 317 318 316 315 315 315 315 315 314 315 317 318 317 317 316 315 317 319 318 317 318 318 319 321 321 317 316 320 322 321 320 322 326 323 318 320 324 320 317 317 320 324 320 316 319 319 318 319 317 316 317 317 318 319 321 322 322 324
313 312 312 312 312 312 312 311 311 311 311 311 311 313 314 313 314 314 312 312 312 312 313 312 313 313 313 315 317 316 319 320 317 316 316 315 315 315 315 315 316 316 316 316 318 316 316 320 317 316 318 317 317 320 321 319 318 318 320 321 320 322 326 324 316 314 316 317 319 320 320 319 315 316 319 317 318 318 316 317 316 316 318 319 323 325 325 327
312 312 312 312 312 312 311 311 311 311 312 310 312 314 313 314 317 315 313 313 313 313 314 313 313 313 312 315 317 316 319 319 317 317 316 315 316 316 315 316 316 316 316 315 317 317 317 318 316 317 318 315 315 319 320 319 319 318 321 320 317 317 320 319 315 315 315 314 317 320 319 316 313 316 319 314 316 317 316 315 315 317 320 321 326 329 329 328
312 312 312 312 312 312 310 310 311 312 312 311 313 315 313 317 319 315 314 314 314 314 313 313 313 312 313 316 316 316 317 318 317 318 317 316 318 317 315 316 315 315 317 316 318 318 320 321 316 316 318 314 315 319 317 316 317 317 319 320 318 318 319 316 313 317 320 316 317 321 319 316 315 315 315 313 315 317 317 314 313 317 319 321 327 329 326 324
312 313 313 312 312 311 310 310 311 313 312 311 314 315 315 319 320 315 314 314 314 314 313 314 314 313 315 317 316 316 316 316 317 319 319 317 318 318 315 316 317 316 315 316 320 321 322 325 319 315 317 316 315 317 317 316 316 316 317 317 318 319 320 320 316 319 324 318 317 320 319 321 324 318 314 315 314 315 317 317 315 317 318 320 327 329 325 323
312 313 313 312 312 311 310 311 312 312 312 312 313 314 316 321 319 316 316 315 314 314 314 315 315 313 316 316 316 316 316 317 318 318 319 317 316 317 315 315 317 317 316 317 321 320 318 324 323 316 315 317 317 317 318 317 315 315 316 315 316 316 317 320 319 319 322 318 317 317 316 322 324 318 315 315 315 318 321 322 321 319 319 322 327 330 328 324
313 315 314 312 312 311 310 312 313 312 312 312 312 313 318 319 317 318 322 320 317 317 316 316 315 314 316 315 315 316 315 317 318 317 317 317 315 316 316 316 318 317 316 317 320 319 316 320 322 317 315 317 318 318 317 318 318 318 315 314 315 315 316 319 320 320 317 316 319 316 316 323 322 316 317 316 316 321 322 324 325 320 320 323 325 326 326 322
315 316 314 312 311 311 311 313 313 312 312 313 314 317 317 316 316 318 321 320 320 320 318 317 316 315 316 315 315 316 314 315 318 317 317 317 316 317 317 316 317 316 316 317 318 321 321 320 319 317 317 317 317 316 314 316 322 321 317 317 316 315 316 319 320 321 318 315 317 315 317 326 323 316 318 317 316 317 318 320 322 319 320 324 325 323 321 319
316 314 313 311 311 311 311 313 313 312 313 314 317 319 316 315 316 317 317 318 320 320 319 318 316 315 316 316 316 316 313 314 317 317 316 316 317 318 318 317 317 315 316 317 318 319 321 322 320 318 318 316 315 316 314 315 320 320 317 319 318 314 315 318 320 322 320 318 317 315 317 324 323 318 318 317 316 316 314 315 317 317 320 324 324 322 321 319
313 313 312 311 311 313 312 311 312 312 314 315 317 318 318 316 317 316 316 317 317 318 319 320 318 317 319 317 317 316 313 314 317 317 316 318 319 320 321 318 316 315 315 316 316 316 317 320 321 320 320 319 317 318 318 317 318 318 317 317 316 316 317 318 319 318 319 322 322 319 320 322 321 318 315 314 315 314 313 314 315 317 322 325 324 322 321 320
313 313 313 311 310 313 314 312 313 312 313 316 317 317 318 317 318 318 317 317 317 316 317 320 321 321 322 319 318 316 314 316 320 318 319 320 319 320 323 321 315 314 318 319 316 315 317 318 319 320 319 319 318 318 318 318 316 316 319 319 318 321 320 316 318 318 319 322 322 320 319 316 314 313 312 314 315 314 314 315 316 316 320 325 326 324 322 322
316 314 313 312 310 312 313 312 314 314 313 315 316 316 316 316 317 318 318 319 320 319 319 320 321 320 320 319 319 317 315 317 321 319 320 321 319 319 322 323 320 318 323 325 317 313 315 317 316 316 316 315 315 316 320 321 318 316 318 320 319 320 319 316 318 319 319 322 322 320 318 314 312 312 311 314 317 314 314 316 317 316 317 321 326 325 323 323
316 314 313 313 312 312 313 313 314 314 313 314 314 314 314 315 315 315 316 318 320 320 320 319 317 317 318 318 318 318 316 319 322 319 319 321 319 316 317 321 322 320 320 320 317 315 315 317 317 316 316 315 314 319 324 321 318 317 317 318 319 319 320 320 319 317 316 319 319 319 318 316 314 313 312 314 317 315 313 315 317 317 318 322 325 323 322 322
311 312 311 312 313 313 313 313 313 314 314 313 314 313 314 315 314 313 315 317 318 319 320 320 317 316 317 317 318 318 318 319 320 319 320 319 316 315 314 316 318 317 316 315 317 319 317 316 318 317 317 317 316 322 327 321 318 318 316 317 318 319 320 320 318 317 317 318 316 315 318 318 314 313 314 314 315 314 312 314 315 316 319 322 323 322 321 321
306 308 308 309 312 313 313 312 313 314 314 313 314 314 314 314 313 312 316 317 316 317 318 318 318 317 317 318 317 317 319 319 318 319 319 316 315 316 316 315 314 315 316 316 318 319 317 315 317 317 317 318 319 325 328 323 320 319 318 317 317 318 319 318 317 316 317 318 316 314 316 317 314 314 315 314 314 314 314 317 316 318 321 322 323 322 321 320
304 306 307 309 312 312 312 312 313 315 315 313 313 314 313 313 312 312 315 316 315 316 316 316 317 317 317 317 316 316 318 317 317 319 318 315 314 316 316 315 315 314 314 316 316 316 317 318 318 317 317 318 319 323 326 325 322 322 321 320 319 319 319 318 317 316 316 317 316 315 317 316 314 315 316 316 316 317 318 319 318 319 321 322 323 322 320 320
301 301 304 309 312 312 313 313 313 315 315 313 313 314 313 314 313 313 315 314 314 315 315 316 317 316 317 317 316 316 316 317 318 317 315 315 314 314 315 316 315 315 315 316 317 316 318 319 319 318 319 318 317 321 323 322 320 320 322 325 323 321 319 317 316 316 316 316 316 317 317 315 313 315 317 318 318 318 318 317 316 319 321 321 322 322 321 321
300 300 303 308 310 311 313 314 314 315 315 313 313 313 313 314 314 313 315 315 315 315 315 317 317 316 316 317 316 317 319 321 320 316 315 317 314 314 319 318 313 313 316 316 317 317 317 318 320 320 318 317 318 321 321 319 317 317 319 322 322 320 318 318 317 317 316 316 316 316 315 313 314 316 317 318 319 317 315 315 316 319 321 321 321 321 321 321
Wind_Speed
50 47 47 47 45 45 43 41 40 40 41 40 40 38 37 37 37 36 36 34 32 29 30 29 27 26 25 25 24 23 23 20 16 15 14 18 24 22 11 6 6 9 10 10 9 8 8 7 6 6 5 2 2 2 2 3 1 1 1 2 4 4 4 5 4 4 6 7 6 8 7 7 6 3 2 2 1 3 3 3 5 8 8 8 12 20 26 26
52 49 47 48 46 45 43 42 41 40 40 39 39 38 36 36 36 36 36 34 32 30 29 30 28 27 27 27 27 26 23 20 16 14 21 27 26 25 21 16 14 17 17 12 10 9 7 5 6 4 3 1 2 2 2 3 3 2 2 1 3 3 1 1 5 4 5 9 7 7 7 5 7 7 3 3 4 5 4 4 6 7 7 7 12 19 22 23
53 51 48 48 47 45 44 42 41 40 39 38 38 37 34 34 35 35 35 34 33 30 28 29 29 27 27 28 27 27 21 13 10 14 28 34 29 28 26 23 23 23 21 15 12 11 8 7 9 5 2 3 3 3 2 2 3 3 2 2 4 2 3 5 8 6 4 10 9 7 6 4 6 7 4 3 6 7 6 5 7 7 8 7 10 16 19 20
53 51 48 48 47 45 44 43 41 40 39 37 37 37 34 33 34 34 34 34 32 30 28 28 29 27 26 26 25 24 15 5 5 15 31 35 31 31 28 26 26 25 22 17 14 12 9 9 8 6 3 4 4 4 2 3 2 2 3 2 4 1 3 6 7 6 5 7 8 7 5 3 6 6 4 5 5 6 7 7 9 9 11 11 10 15 18 18
53 51 49 48 46 45 44 43 41 39 38 37 37 36 35 34 34 35 34 33 31 30 28 28 29 28 27 26 24 21 12 1 6 17 29 30 30 30 29 29 27 24 21 14 10 9 8 7 6 4 2 3 3 3 3 5 3 1 4 1 4 4 3 5 6 5 5 4 7 8 6 4 5 4 5 6 4 3 3 4 8 9 13 15 13 15 16 15
54 51 49 49 46 45 44 43 41 40 38 36 37 36 35 34 33 34 34 32 30 29 28 27 28 29 29 27 25 22 11 3 3 12 23 26 27 29 28 28 26 22 18 13 7 7 6 5 4 3 2 3 4 4 4 5 3 1 5 1 5 5 3 3 4 4 5 4 7 6 5 5 5 3 5 6 4 3 2 3 4 5 14 20 18 16 13 13
55 52 48 50 47 46 45 43 42 40 39 37 37 37 35 34 33 33 32 32 29 28 28 27 27 28 28 26 22 15 8 6 1 3 16 24 27 27 27 26 25 22 17 12 6 5 5 5 5 3 3 4 5 6 6 4 4 3 4 2 4 5 5 3 3 3 6 6 2 2 5 6 5 3 4 6 3 6 5 6 7 11 18 19 15 13 13 14
54 53 49 49 48 46 45 44 43 40 39 37 36 36 35 34 33 31 30 30 28 28 28 27 27 26 29 28 17 7 8 10 6 3 9 21 28 29 29 27 25 22 18 13 9 7 6 7 7 4 4 5 4 4 4 4 4 5 3 2 2 4 5 4 4 3 5 4 3 4 4 5 3 0 1 6 4 7 6 7 7 10 15 14 12 12 11 13
52 53 51 50 48 47 46 44 43 41 38 37 36 36 35 34 33 30 29 29 28 28 27 28 27 28 32 25 12 6 11 15 12 6 8 18 28 32 31 28 25 22 17 14 13 10 7 6 8 6 4 5 5 3 2 3 3 5 3 3 3 4 4 3 4 3 3 1 2 3 3 4 4 2 2 8 6 8 8 7 6 7 9 9 10 11 11 11
53 52 52 51 49 47 46 45 42 41 38 36 36 36 34 33 31 30 28 27 27 26 27 28 28 33 30 17 10 6 9 16 13 7 9 16 25 29 27 26 27 24 17 14 15 12 9 8 7 5 2 2 3 2 2 3 3 1 4 5 4 4 3 1 3 4 1 1 1 1 3 3 4 1 3 6 6 9 9 7 7 7 7 8 8 9 12 12
55 52 52 51 50 49 46 44 42 40 39 36 36 35 32 31 30 29 28 26 26 25 27 28 33 37 24 12 11 6 7 18 16 8 9 13 21 26 27 27 28 26 20 14 16 17 15 14 8 1 1 1 3 2 1 3 3 2 7 6 4 4 4 1 3 5 2 2 2 2 3 3 3 0 5 3 6 9 9 8 7 7 7 7 8 8 10 12
55 53 53 52 50 49 46 44 42 41 38 36 36 34 30 30 31 30 28 26 24 25 27 28 35 34 16 7 8 6 10 18 18 12 9 13 19 23 27 29 28 26 23 15 16 20 16 12 7 2 3 1 2 1 1 3 0 2 4 4 4 3 3 3 3 4 2 1 3 1 2 1 2 7 9 5 5 6 7 7 8 7 7 7 8 7 7 10
54 55 54 53 51 48 46 44 42 40 38 36 35 32 30 30 31 30 28 27 25 26 26 26 33 27 9 5 6 7 12 17 19 16 13 15 18 20 22 25 24 22 23 17 12 15 16 12 6 4 4 2 2 2 1 2 2 3 4 2 4 2 3 5 4 4 3 0 2 1 1 4 7 13 10 7 6 6 6 7 7 7 7 7 7 7 7 9
55 57 56 52 51 49 46 45 43 41 38 35 34 33 32 31 31 30 28 26 25 26 24 24 29 19 5 4 6 8 12 16 19 19 19 18 19 18 16 19 21 19 19 16 8 8 15 13 5 4 4 2 1 1 0 0 1 3 3 2 3 2 3 5 5 6 4 0 2 3 2 5 5 6 6 7 7 8 6 7 7 7 6 6 6 7 7 8
52 55 57 51 50 50 46 45 44 41 38 35 34 33 32 31 30 29 27 25 24 24 22 23 24 12 2 4 6 11 13 14 15 18 20 20 19 16 13 17 20 17 14 13 7 4 9 9 3 2 3 0 1 2 2 2 1 3 3 2 3 3 3 2 2 6 4 1 4 3 3 5 2 3 5 4 5 6 7 7 7 7 7 7 6 7 6 7
51 51 55 53 51 48 47 46 44 41 39 35 34 33 33 30 28 26 24 23 21 23 21 18 19 10 3 4 7 13 12 9 13 16 18 18 17 15 16 16 15 14 10 8 7 4 6 7 2 1 2 1 2 3 3 3 2 3 4 3 4 4 3 2 2 2 3 2 4 4 3 3 2 3 3 3 4 4 6 6 7 7 7 7 6 6 6 6
55 53 53 53 51 48 48 46 43 42 39 37 35 33 32 28 26 25 22 21 21 22 17 12 16 8 2 5 8 10 10 10 14 17 17 16 15 18 19 13 10 12 7 5 6 4 5 5 1 0 2 2 4 4 4 4 4 3 3 2 4 6 4 3 1 2 3 3 4 5 4 5 4 5 5 5 6 6 6 7 7 7 7 7 6 7 7 7
56 55 54 53 50 49 48 45 44 42 39 40 37 33 32 28 27 24 21 22 19 17 9 7 14 7 3 7 8 9 13 16 17 17 17 15 16 21 18 11 10 12 8 4 4 4 4 3 2 2 3 4 5 5 4 4 5 5 4 3 3 5 5 4 2 3 7 4 3 6 6 9 8 5 6 6 7 7 7 7 7 7 7 7 7 7 7 8
55 53 54 52 51 49 47 47 45 43 43 41 37 35 33 27 23 19 18 20 14 10 6 10 16 5 2 11 9 11 19 21 17 14 15 14 16 18 14 12 12 11 8 4 4 5 4 2 2 4 4 5 6 7 6 5 6 8 8 6 4 4 4 3 2 2 6 4 4 7 7 9 10 7 7 7 8 8 8 8 7 7 6 6 6 6 7 8
54 54 55 51 51 50 48 49 47 47 46 43 45 37 24 18 13 9 12 15 11 6 3 14 17 3 4 12 11 17 20 18 12 10 16 15 15 15 9 9 10 6 7 6 5 5 4 4 4 6 6 7 8 9 6 3 3 6 9 8 7 5 2 2 3 1 2 3 6 8 8 8 8 9 7 7 8 8 8 8 7 7 6 6 7 7 8 8
54 54 54 52 52 50 50 51 49 49 46 49 48 24 12 18 10 11 16 9 11 8 1 15 19 4 5 12 19 24 15 10 9 10 17 17 14 13 7 7 9 5 6 8 6 4 5 6 6 8 8 8 10 9 4 1 5 2 4 6 6 5 2 2 3 2 0 1 5 8 8 10 9 8 7 6 8 9 9 9 9 9 8 7 8 8 9 7
57 53 54 54 52 51 52 51 49 49 46 47 35 8 11 18 4 17 25 6 8 8 3 15 19 4 8 12 19 24 14 9 11 10 15 16 11 9 7 7 9 7 8 8 6 4 5 6 6 10 9 7 9 8 2 1 3 3 1 3 3 3 4 3 2 2 2 1 2 3 3 7 8 7 8 8 8 8 9 11 10 10 9 8 9 9 8 7
57 54 55 53 53 53 52 50 49 48 44 40 26 7 12 16 11 31 26 7 7 5 2 17 17 5 9 9 12 15 12 12 12 9 15 16 9 7 8 9 9 8 8 9 7 5 5 4 5 6 6 5 6 6 5 1 1 1 1 1 2 3 4 1 1 2 1 1 1 3 4 5 6 7 8 10 11 9 8 11 10 10 11 10 10 9 9 10
57 56 55 54 55 52 50 52 47 43 41 34 26 14 11 19 32 39 16 6 8 3 1 11 9 6 8 8 11 10 8 10 9 11 17 16 9 7 8 10 9 8 8 10 10 7 5 2 2 1 5 7 5 5 6 4 1 2 2 1 0 3 4 2 3 4 0 1 1 2 4 6 6 8 10 9 10 10 9 10 10 9 10 10 9 9 9 9
58 56 56 56 54 52 54 49 37 39 36 23 24 23 12 23 35 29 10 6 6 1 1 3 2 7 8 8 12 8 6 8 6 11 17 14 9 8 7 8 7 8 11 12 10 6 4 2 1 3 6 6 6 5 5 6 3 3 3 2 1 2 7 7 5 5 1 2 2 2 1 6 5 8 10 7 8 10 9 9 10 9 8 8 8 8 7 7
60 56 58 57 54 58 50 30 28 38 27 16 27 26 15 23 28 19 7 5 4 2 3 5 3 8 10 9 8 6 8 6 2 12 20 13 7 5 7 6 2 6 12 10 5 3 1 1 1 4 6 5 5 4 5 6 4 3 3 2 3 6 8 8 6 3 2 2 2 2 3 4 5 4 7 4 6 8 7 7 9 8 7 7 8 8 7 7
59 57 59 56 59 60 35 17 31 35 18 21 32 23 17 23 19 10 3 3 5 5 4 2 2 8 10 9 10 6 7 6 4 7 15 10 5 1 5 6 2 4 8 6 2 1 3 2 1 4 6 5 5 3 5 7 4 3 3 1 5 7 7 7 5 2 1 1 1 1 2 2 4 5 6 1 4 6 6 7 9 8 8 9 9 9 8 7
59 60 59 57 64 55 27 25 36 26 16 26 31 22 20 22 12 3 3 4 4 5 5 2 2 7 8 8 12 4 4 11 7 4 6 7 5 1 3 8 6 5 6 6 6 1 2 4 5 7 6 4 4 2 4 7 4 2 3 1 4 5 5 6 4 2 1 3 2 4 2 1 5 6 5 3 4 6 7 9 10 10 10 9 7 7 6 5
60 61 58 59 59 38 24 33 33 23 20 20 25 24 20 15 6 1 2 4 4 4 5 4 4 7 8 9 12 4 5 9 5 4 6 5 4 1 2 8 8 7 4 4 5 0 0 4 4 6 6 4 4 1 1 4 4 3 3 3 6 5 4 3 2 2 3 1 3 5 4 2 5 5 4 4 4 7 8 8 5 4 5 6 6 6 6 5
61 60 58 61 49 28 25 28 27 31 23 13 22 26 17 9 4 4 5 4 5 3 3 5 4 8 13 12 11 8 7 4 3 7 6 4 4 2 2 3 7 7 4 6 5 1 0 1 0 2 3 3 5 3 3 2 6 5 4 5 7 5 5 4 1 4 3 2 4 4 4 3 3 5 4 4 4 5 5 3 1 3 5 6 6 6 6 5
59 57 61 57 41 30 25 19 28 38 25 15 24 22 11 5 2 5 7 3 5 3 2 6 8 11 16 16 11 10 8 4 6 12 9 5 5 4 3 4 5 5 3 4 5 2 2 2 0 1 1 2 5 4 5 3 5 5 4 5 5 3 4 4 3 4 1 4 3 3 2 2 3 6 3 3 2 3 2 3 5 5 5 5 5 6 6 5
57 57 59 47 35 31 21 21 39 38 23 21 23 14 7 5 4 4 5 5 5 5 5 11 14 14 16 16 11 10 9 6 8 13 12 8 6 7 7 6 6 4 3 3 3 2 3 3 2 2 3 3 4 4 4 5 2 2 4 6 5 2 2 1 0 1 2 4 3 3 4 0 5 7 6 7 6 4 4 3 6 7 6 6 6 6 5 5
57 56 50 37 33 29 19 29 42 30 22 22 15 7 5 7 8 7 6 6 5 8 9 11 15 15 15 13 10 10 9 7 10 12 10 9 7 7 7 7 10 7 5 6 4 3 2 1 2 2 2 2 3 5 4 0 2 3 5 5 5 4 2 2 3 2 3 2 3 4 2 2 4 5 8 13 10 5 5 4 5 7 7 6 5 4 3 4
57 52 39 32 32 27 22 32 39 30 24 17 7 7 9 8 9 8 8 5 3 9 12 12 15 16 14 11 9 11 8 6 12 12 10 10 8 8 9 9 12 7 5 7 5 6 6 2 3 4 2 3 4 3 4 6 5 3 4 4 4 4 4 4 3 2 3 1 3 4 1 3 3 3 6 8 5 4 4 3 2 1 3 4 2 2 4 5
54 43 30 30 28 23 25 31 37 34 23 11 5 8 10 9 9 8 8 5 4 9 12 15 16 15 12 8 9 11 4 4 11 10 9 11 9 10 10 9 13 8 6 7 4 5 7 3 1 1 2 3 4 2 1 7 5 3 2 4 2 3 4 3 2 3 4 2 1 2 2 5 5 4 6 5 4 4 2 2 0 3 4 3 2 4 5 4
46 34 26 27 24 20 25 31 37 34 18 8 8 8 9 8 6 7 7 6 7 11 15 15 13 12 11 6 9 11 1 3 12 9 8 10 9 11 10 8 12 12 8 8 4 3 6 1 3 2 2 2 2 2 1 3 4 1 2 3 4 3 6 5 0 0 3 0 2 3 3 5 3 5 8 6 5 4 2 2 4 5 5 4 4 5 5 5
36 25 20 20 20 20 25 33 38 28 12 7 10 10 9 5 2 5 7 8 9 13 15 12 9 11 12 8 10 14 6 6 11 8 7 9 8 11 13 9 12 14 9 6 3 2 5 2 3 2 2 1 0 1 2 2 2 4 2 5 3 2 3 3 1 1 1 2 3 4 5 4 2 4 6 1 4 5 4 5 6 6 6 5 5 5 5 6
29 19 12 13 18 20 26 36 33 18 6 6 11 12 8 3 1 5 10 11 13 14 12 9 8 10 11 10 10 13 12 9 10 8 7 8 6 10 14 9 10 15 8 5 3 2 5 5 3 3 2 1 1 2 1 2 1 3 3 3 3 2 1 1 3 2 2 3 3 3 6 4 4 4 2 1 5 7 7 6 5 6 6 6 5 5 6 5
22 12 5 13 19 18 28 34 23 9 5 8 11 10 6 3 1 6 13 14 12 12 10 7 7 7 9 9 9 12 12 10 10 8 6 6 4 7 14 9 8 15 9 5 4 3 4 4 1 3 2 1 1 0 4 3 1 1 2 2 2 1 3 3 3 3 3 3 3 3 3 3 5 6 6 7 7 7 7 5 5 6 6 6 5 6 6 5
13 5 4 17 21 21 30 26 12 6 8 10 10 7 7 3 0 6 12 14 10 6 7 9 9 8 9 10 10 10 9 8 10 7 4 7 4 4 10 8 8 13 8 5 4 3 3 3 3 0 3 1 2 2 5 6 4 2 3 4 2 1 2 1 2 2 4 3 3 3 3 4 6 5 7 9 6 6 8 6 5 5 5 5 5 6 6 5
8 4 5 17 24 27 28 15 7 9 9 9 8 5 7 5 3 4 4 6 6 1 2 9 10 9 9 10 10 9 7 7 9 7 4 7 6 2 4 6 10 12 8 5 3 2 2 3 5 3 1 2 1 1 1 3 5 5 4 7 7 5 4 2 2 2 3 2 3 4 3 5 5 2 2 6 6 5 6 7 7 5 6 6 5 5 5 5
5 5 8 20 30 31 22 8 8 9 6 6 5 3 6 6 6 6 1 2 4 2 0 6 9 8 7 9 10 10 9 7 8 9 5 6 7 3 3 5 11 12 8 5 3 1 2 5 5 3 2 1 1 1 1 0 1 1 3 4 6 6 6 5 5 4 2 1 1 2 2 6 6 2 3 4 4 3 2 3 6 6 6 6 5 5 4 4
3 6 10 23 32 25 13 8 9 6 4 5 5 4 4 5 5 6 4 3 3 1 1 4 8 9 7 8 9 11 11 8 8 10 7 6 6 3 4 8 12 11 8 5 3 2 3 5 4 3 2 2 2 1 1 1 1 2 5 5 6 7 7 5 4 4 3 3 2 2 3 6 6 2 2 3 2 2 1 1 2 4 5 5 5 5 4 4
4 5 7 18 25 15 7 10 12 9 7 7 7 4 1 2 6 7 7 6 4 3 3 3 7 7 5 6 8 11 13 7 7 8 5 6 4 4 2 10 13 11 6 6 7 5 3 4 5 5 3 2 2 2 2 3 4 3 3 4 5 6 6 3 2 3 2 5 6 4 4 7 5 1 2 1 1 0 3 3 2 3 5 6 5 5 5 5
6 4 4 9 12 6 3 5 7 9 10 9 9 8 4 3 2 2 7 7 3 4 4 2 5 6 5 6 6 8 12 7 4 6 4 5 2 5 2 8 12 8 4 6 9 7 4 5 5 6 6 6 6 5 4 4 3 1 1 4 7 8 10 7 2 3 2 5 6 5 6 8 4 1 1 2 2 2 4 4 4 3 3 5 6 5 5 5
7 4 4 5 2 3 2 1 1 6 11 10 8 9 9 6 1 3 3 4 0 3 5 3 5 6 5 8 8 8 12 6 3 5 5 5 2 3 4 2 5 3 3 9 12 7 3 4 6 9 9 10 9 5 4 7 6 6 8 8 8 8 9 7 4 4 5 5 4 6 9 11 8 3 4 5 5 6 7 6 5 5 4 3 6 6 5 6
4 4 7 8 4 5 4 2 3 6 11 13 9 9 12 10 5 1 2 0 2 3 4 2 5 7 7 11 9 8 11 6 4 7 8 5 2 1 4 6 5 4 3 9 11 6 4 4 8 11 11 10 6 3 7 10 9 12 13 10 9 8 7 7 6 9 9 5 5 9 10 12 14 8 8 8 7 7 7 7 8 7 7 5 6 6 6 6
2 3 4 4 5 9 8 7 10 10 13 14 8 9 14 12 10 7 0 1 3 4 3 2 6 10 13 13 9 7 9 6 4 6 7 5 4 3 4 5 4 5 4 5 5 3 5 6 7 9 10 9 4 3 8 10 9 11 13 12 12 11 10 10 12 13 9 7 11 15 15 16 17 10 9 9 9 8 9 9 8 7 6 6 7 7 6 7
2 3 1 2 1 7 7 6 8 9 13 15 8 9 16 15 15 12 4 4 4 4 4 6 8 11 12 12 9 8 9 8 6 5 5 5 5 5 3 2 2 3 3 4 2 1 3 4 5 6 7 8 5 5 8 8 7 8 11 13 13 12 13 15 16 16 13 12 15 17 14 15 15 10 8 9 9 9 7 6 7 7 8 7 8 7 6 7
1 2 2 1 1 6 8 8 7 7 9 13 10 9 14 17 17 12 6 8 10 7 7 9 11 12 12 12 10 9 12 13 10 8 7 8 6 4 4 3 3 1 1 3 2 1 1 3 4 6 3 6 5 7 7 7 7 6 7 9 11 12 14 15 16 16 13 13 16 15 10 12 13 7 6 7 7 7 6 8 9 9 8 8 8 7 6 7
1 2 0 3 3 5 9 8 7 7 8 10 10 9 12 16 17 13 6 7 11 11 11 11 12 10 9 11 13 12 12 12 11 13 15 14 11 8 5 5 8 7 4 4 4 3 3 3 3 6 4 5 6 9 7 5 5 3 5 8 12 13 14 14 14 13 11 11 13 12 9 13 11 3 3 5 6 8 8 10 9 6 7 8 8 8 8 8
2 3 3 2 3 3 7 8 7 8 8 8 9 10 10 12 14 13 7 3 5 8 10 11 11 9 8 12 13 9 7 7 7 11 11 9 9 8 5 7 12 12 8 5 3 3 5 4 2 5 5 5 4 6 7 6 4 4 8 13 16 15 13 12 11 12 12 11 10 10 13 16 8 4 3 6 6 8 8 7 6 6 8 9 9 9 8 8
Wind_Direction
206 201 202 201 200 200 200 200 200 202 203 203 200 199 199 200 199 200 200 199 200 201 202 202 201 201 199 197 196 196 195 192 198 204 208 221 227 234 235 207 227 265 282 290 282 276 289 287 268 256 265 263 196 207 170 165 126 112 212 230 250 236 196 188 161 127 133 132 147 162 165 152 142 143 111 156 168 112 140 138 93 70 72 86 102 120 131 141
208 204 201 200 199 199 198 198 199 201 203 202 199 196 196 198 198 197 198 197 197 199 200 200 201 200 200 199 196 197 196 200 218 229 228 227 228 234 236 231 237 261 274 278 274 271 283 291 286 256 227 248 191 171 154 172 153 171 227 227 249 266 309 96 95 81 117 139 150 155 179 179 149 156 133 156 179 154 168 177 144 107 92 99 117 128 134 142
206 203 200 198 198 198 197 197 198 199 200 201 199 195 194 195 196 195 195 194 194 196 197 199 199 198 202 202 203 206 202 205 232 244 238 232 230 232 237 240 241 254 262 262 271 283 289 289 302 306 234 239 213 178 178 173 181 209 216 250 250 222 30 35 73 61 76 129 144 148 180 190 140 143 137 186 186 173 198 189 166 156 144 143 139 141 145 150
203 202 199 197 197 196 195 195 196 197 198 200 198 194 192 192 192 192 191 190 191 193 194 196 195 195 198 198 202 200 186 202 245 240 239 233 228 230 233 237 238 247 255 256 264 276 287 286 290 296 262 255 225 199 209 177 178 214 195 230 277 229 67 42 63 54 50 117 140 137 153 165 132 129 147 193 194 180 211 201 183 179 155 153 157 152 157 161
203 201 198 195 196 194 193 194 194 195 196 198 197 192 189 189 190 191 190 189 187 189 190 192 193 193 192 193 193 176 149 188 225 223 235 230 222 225 226 229 233 241 245 244 258 267 269 273 273 272 264 266 231 194 217 204 167 263 240 227 360 348 65 60 51 30 10 103 122 128 154 147 118 130 171 198 208 186 233 194 178 178 157 155 160 156 161 169
203 200 197 195 195 193 191 192 192 193 194 197 196 191 187 187 189 190 190 187 185 186 185 187 189 189 190 190 182 165 160 223 181 205 221 219 215 216 215 220 227 233 232 225 248 268 250 243 247 245 242 257 243 216 215 207 153 232 257 137 33 12 60 57 41 356 347 88 119 139 153 122 125 173 192 213 210 124 39 66 86 110 146 153 154 155 163 173
203 198 195 194 194 192 190 191 192 192 193 195 194 189 186 185 187 188 187 185 185 182 180 183 183 184 184 179 173 173 210 243 16 200 206 205 207 207 204 210 220 221 216 205 213 253 241 217 208 217 241 248 251 234 209 182 155 223 258 98 58 44 64 46 52 346 4 65 83 106 121 125 165 190 182 217 188 114 84 67 63 86 125 141 147 158 170 176
199 197 194 193 194 192 189 190 191 193 193 193 192 188 185 183 185 185 183 183 183 179 178 179 177 176 168 162 162 185 231 230 243 254 197 200 202 201 198 201 211 207 200 201 199 221 241 228 211 204 223 240 267 258 197 167 173 223 252 83 94 76 83 79 80 35 34 55 360 49 102 115 139 30 155 223 196 131 116 88 86 101 123 138 149 165 172 177
197 196 193 193 193 190 189 189 190 192 192 191 189 187 184 182 182 183 180 181 182 179 177 176 176 168 160 158 159 193 215 212 223 219 186 195 196 198 195 192 197 190 187 206 211 221 241 229 217 211 219 248 268 283 208 188 210 218 203 97 111 102 99 102 98 83 49 31 18 75 126 73 58 9 252 232 205 141 124 108 112 122 137 151 155 169 173 176
197 194 191 191 191 189 188 188 188 188 188 188 187 186 182 179 179 179 177 177 179 179 176 176 171 161 160 167 175 201 209 193 196 181 172 188 187 188 188 186 188 181 178 199 209 218 232 235 229 215 244 285 238 261 225 211 275 221 131 93 98 103 105 97 88 111 99 90 132 176 152 85 44 30 250 233 177 138 132 133 140 141 155 169 163 171 177 179
196 193 190 189 188 187 187 186 185 185 185 186 186 184 180 178 177 176 175 173 175 177 176 173 165 161 167 186 189 193 176 178 184 166 155 175 179 181 184 187 187 182 176 188 209 214 225 248 266 221 148 282 220 254 247 227 310 88 121 93 99 112 102 116 107 134 172 105 195 247 96 93 61 180 237 214 148 144 147 154 162 164 167 175 175 173 177 183
193 191 189 189 186 184 184 183 181 182 184 185 184 182 180 178 176 175 174 172 172 174 174 171 165 165 171 205 207 182 153 171 183 174 152 155 168 178 184 189 189 185 179 181 211 218 226 256 280 240 204 231 200 193 210 218 323 123 151 116 133 145 128 171 138 143 186 133 199 218 34 147 168 224 224 179 154 156 160 172 172 181 182 178 181 175 176 185
190 190 189 187 184 181 181 181 179 180 182 183 182 181 180 178 175 175 174 172 173 171 171 171 168 169 181 217 198 170 161 171 179 171 156 156 162 172 184 189 187 185 183 183 203 217 227 247 273 275 268 285 213 216 262 211 139 162 219 185 142 162 195 180 132 125 147 121 198 142 336 232 217 227 209 153 158 154 174 198 180 182 191 189 185 173 176 186
190 189 186 183 180 178 178 178 178 178 179 180 179 177 175 174 172 171 170 170 169 165 168 171 168 170 205 209 169 171 172 167 171 166 162 161 151 158 177 182 180 179 182 185 187 204 221 233 265 301 289 290 205 194 20 157 163 168 207 240 171 163 185 160 134 152 151 326 215 153 220 256 253 221 167 141 161 156 182 207 189 188 190 193 190 175 177 187
189 185 181 181 178 175 176 176 176 175 175 175 173 171 168 167 168 168 167 166 163 161 163 167 169 171 218 207 169 168 166 161 168 169 170 167 149 151 169 171 176 180 180 183 187 203 211 211 221 272 267 298 130 155 145 147 228 186 173 225 208 178 165 144 155 169 151 210 211 178 225 255 285 112 118 133 166 168 194 203 193 196 191 190 188 180 182 187
186 181 177 178 176 174 174 174 173 171 172 171 167 164 161 160 161 162 163 159 157 160 158 163 178 193 232 190 160 160 160 161 174 173 169 169 163 158 154 153 162 174 179 186 200 214 189 182 169 267 255 194 190 201 165 146 201 216 182 178 197 197 169 164 256 209 142 130 200 222 254 244 204 151 140 152 173 188 217 220 202 196 194 191 183 184 192 190
184 181 176 174 173 172 171 172 170 168 169 167 159 152 151 152 152 152 153 150 151 156 150 156 179 206 276 145 151 171 167 151 165 169 164 166 168 157 147 138 139 150 148 160 185 186 175 180 121 272 230 205 213 210 180 170 191 201 192 213 212 195 168 156 245 247 179 172 208 219 247 259 232 176 175 190 187 186 216 236 222 204 196 190 184 186 193 194
180 177 173 170 169 168 169 169 165 164 164 159 151 145 143 144 144 141 141 142 140 144 143 157 173 200 254 171 172 175 159 149 156 162 162 160 158 157 154 143 135 136 126 130 168 175 176 172 136 190 212 204 212 212 195 178 175 167 176 224 219 196 196 177 177 183 174 194 225 194 222 254 250 203 185 200 194 186 204 226 234 224 204 194 194 195 197 198
176 172 168 166 165 165 166 164 160 159 156 150 143 137 134 133 132 130 144 156 151 150 174 180 178 194 161 175 181 156 150 149 149 153 158 154 153 164 163 144 138 140 142 152 184 190 175 127 160 205 203 202 210 216 213 191 182 176 173 195 193 192 218 159 116 167 161 172 226 205 219 241 245 236 206 191 193 195 199 207 225 230 216 205 202 206 207 206
173 169 166 163 163 163 163 160 157 156 153 144 139 136 134 136 128 131 168 190 195 182 169 170 182 233 105 151 141 128 140 145 137 150 162 156 154 165 165 143 144 156 162 158 170 182 164 156 195 207 197 197 210 223 227 249 258 188 170 192 194 176 196 114 101 215 166 166 217 222 236 244 246 247 229 189 186 198 200 199 210 218 216 211 208 213 214 214
169 166 163 161 161 161 160 158 156 156 154 149 148 146 155 155 150 172 174 203 222 219 246 166 181 224 107 136 136 131 136 144 134 150 163 160 158 162 166 159 156 174 179 155 139 144 167 192 201 203 207 198 209 226 226 324 318 315 161 184 193 171 151 61 87 188 166 95 223 225 233 247 249 250 252 218 193 200 200 198 205 210 211 212 210 217 219 216
167 165 162 160 160 160 158 155 155 157 157 157 162 180 172 170 187 165 157 143 212 234 321 168 182 190 105 132 151 146 140 146 147 153 163 164 172 174 169 174 167 170 178 155 128 137 186 216 201 197 212 205 209 218 164 69 320 343 32 152 184 166 121 63 58 141 131 114 269 273 248 254 256 251 249 237 227 220 202 199 202 202 206 212 209 212 216 213
164 163 160 159 159 159 157 156 156 157 159 166 182 208 169 181 157 146 144 102 165 237 321 167 180 164 124 145 170 161 149 153 155 162 169 169 179 181 166 178 176 165 174 164 152 164 182 215 215 195 189 174 190 189 152 108 346 349 355 105 168 153 124 128 207 149 157 182 17 351 320 276 268 270 254 235 235 234 215 209 206 201 205 209 208 207 206 204
162 160 159 158 157 158 157 156 155 160 169 177 195 206 161 157 149 144 136 82 144 240 270 164 174 157 141 151 174 179 163 157 156 161 173 174 164 159 167 179 174 161 175 173 166 174 173 193 276 207 165 160 153 159 164 169 230 243 232 135 201 157 117 86 153 147 58 311 78 13 326 288 237 236 248 236 226 229 222 214 215 215 209 204 207 210 206 202
160 159 158 157 158 158 155 154 157 168 174 184 206 211 176 151 154 150 126 98 141 323 343 165 178 162 152 146 166 176 152 153 161 159 170 182 168 156 173 183 178 171 176 176 170 175 187 216 303 160 165 161 150 166 178 166 185 234 207 173 20 121 112 103 137 143 90 279 251 125 346 291 248 220 238 229 211 225 219 208 217 221 212 202 208 216 214 213
159 158 157 159 158 155 153 154 165 169 172 200 209 207 189 164 165 165 133 99 157 150 155 175 174 166 159 152 165 168 163 166 120 153 167 190 204 175 178 176 168 179 174 172 173 167 155 8 22 151 148 134 140 182 195 163 162 213 229 191 118 100 108 125 154 152 135 225 258 112 161 269 313 295 266 211 177 217 218 211 223 223 217 212 214 222 219 221
158 158 158 160 159 156 154 154 164 165 172 207 204 202 200 183 179 187 131 86 182 161 152 184 199 175 160 161 175 176 171 151 70 157 172 188 219 210 180 173 129 174 167 146 166 177 107 97 76 142 133 130 148 187 189 162 153 205 278 319 120 114 124 144 153 162 170 127 6 358 168 250 298 287 280 182 157 224 227 222 230 223 219 216 213 217 213 211
158 159 160 161 161 159 153 149 158 168 182 194 197 200 200 190 186 205 125 140 178 144 146 163 156 163 144 159 186 198 127 138 134 171 162 167 201 349 161 176 155 148 152 146 172 225 97 152 170 149 139 159 171 201 189 162 152 223 270 3 103 111 130 145 148 169 101 65 328 269 203 253 274 257 250 204 197 241 238 230 233 222 212 202 188 182 178 168
159 160 161 161 160 155 151 155 162 175 176 181 195 198 192 183 178 145 148 172 155 116 144 142 138 159 144 160 188 200 132 148 156 140 124 148 201 293 179 177 149 120 88 111 147 242 316 176 177 151 155 172 151 23 302 161 153 202 201 77 71 70 72 96 147 144 94 72 247 230 187 198 277 260 218 196 218 237 236 235 238 208 172 150 136 136 133 125
160 161 162 160 158 152 149 158 169 175 173 175 186 185 174 167 170 156 183 190 148 135 140 141 156 160 154 163 183 188 165 148 103 125 139 167 182 244 261 162 135 116 63 55 87 98 166 146 196 130 155 162 127 76 9 106 129 139 137 87 65 50 42 37 49 83 80 262 253 223 185 163 281 269 208 188 222 230 231 228 109 78 98 112 120 131 137 144
161 162 163 161 160 155 146 155 175 178 184 181 170 168 159 163 207 167 173 161 129 137 137 149 155 157 165 170 173 181 167 119 130 147 162 177 167 200 202 148 125 102 82 66 71 86 80 77 105 15 300 177 119 79 16 44 108 107 118 113 80 32 32 27 11 52 101 244 269 310 338 110 227 261 233 201 217 182 174 153 140 132 127 134 142 145 151 161
162 163 164 162 157 152 149 167 175 179 189 176 160 159 160 157 195 191 159 145 154 176 180 166 161 162 173 170 162 172 157 129 159 162 161 167 170 188 188 168 149 126 141 141 96 95 75 82 134 36 320 225 134 98 38 9 14 90 128 124 107 78 57 56 271 122 212 240 259 302 343 282 232 256 263 269 268 208 182 151 141 147 147 148 153 149 156 176
162 161 161 161 154 149 154 170 175 181 182 171 162 168 165 158 188 191 156 164 173 163 163 165 162 160 165 166 163 167 151 141 170 167 160 166 168 189 207 189 173 171 166 152 137 133 90 13 160 111 344 244 169 141 128 149 247 176 153 139 136 137 131 192 203 193 217 255 295 281 291 266 270 273 249 254 259 208 161 137 137 149 150 152 158 156 182 212
161 158 157 158 153 152 162 172 178 180 171 170 180 169 160 173 191 178 163 181 159 149 154 154 153 154 165 171 162 163 154 150 169 164 158 168 172 190 209 196 186 185 139 145 165 166 166 213 197 157 174 188 178 178 155 150 165 190 162 138 154 165 161 183 181 176 196 209 324 300 265 195 223 260 237 234 227 164 135 110 107 160 181 170 179 216 241 229
158 155 151 153 155 161 171 177 179 175 168 169 175 166 172 185 186 175 171 167 142 150 151 149 150 155 170 170 153 164 168 153 171 168 166 180 184 186 194 190 188 186 144 154 183 169 168 206 275 227 243 166 163 261 139 125 143 215 136 113 185 202 144 136 159 166 150 107 297 259 245 217 212 265 267 237 199 164 124 88 20 276 247 194 200 239 230 193
153 153 151 157 165 171 172 176 175 173 175 170 158 175 196 191 174 172 165 144 151 152 142 148 155 158 167 165 157 172 208 150 171 174 178 189 193 189 192 189 186 190 174 157 157 155 162 219 322 332 359 79 128 298 337 116 153 176 109 154 201 164 116 113 173 85 103 153 237 187 247 280 287 292 279 242 200 174 136 218 230 235 222 188 209 229 199 151
151 151 156 165 176 174 169 171 171 174 188 180 170 186 193 188 173 159 142 124 136 144 142 152 167 168 170 171 170 174 165 153 175 182 178 185 198 194 193 192 185 193 191 156 161 191 146 115 335 15 51 6 302 13 14 30 124 118 149 192 175 88 87 117 148 18 70 237 248 175 210 264 264 275 299 257 179 195 199 213 213 198 186 197 227 214 164 138
149 147 155 173 179 174 167 166 168 175 196 184 188 193 176 158 189 144 135 128 135 148 155 160 169 177 176 169 170 171 163 162 180 183 172 180 203 191 187 189 184 191 190 126 140 187 121 107 347 358 35 283 322 95 87 351 25 126 172 186 116 120 197 144 166 185 166 211 267 235 218 228 204 220 285 228 201 208 203 196 188 186 191 207 217 179 137 122
144 144 156 175 179 174 163 162 165 174 189 188 198 197 162 137 163 143 139 138 141 155 167 165 164 176 176 167 161 165 172 174 173 174 177 184 207 191 183 181 178 186 182 122 146 168 109 121 176 333 331 261 360 153 176 197 307 40 86 70 55 134 169 165 184 179 149 182 248 272 236 236 229 211 206 222 218 185 176 184 184 190 196 196 181 154 137 124
147 144 141 164 170 165 157 157 163 181 193 194 193 180 153 133 132 146 142 143 145 160 174 168 168 171 166 164 160 162 175 172 165 181 197 173 175 203 190 179 169 176 164 100 119 136 85 100 138 360 331 185 186 223 185 177 181 161 132 150 166 127 113 125 241 174 137 169 216 245 260 259 248 214 196 213 212 154 152 164 172 172 159 152 146 145 145 131
161 143 135 158 158 153 151 152 178 188 197 196 184 168 154 138 129 136 120 134 139 96 184 165 169 170 159 161 163 161 167 165 168 187 195 172 175 231 226 179 159 163 153 108 110 144 102 91 121 144 196 185 223 310 155 164 177 179 178 178 181 169 133 126 248 212 153 170 189 192 252 271 259 263 161 174 171 153 154 157 165 165 144 139 137 140 141 133
163 143 139 157 158 155 154 164 189 188 195 182 164 135 142 138 141 147 90 86 118 48 208 160 165 167 159 163 163 160 164 168 175 184 190 185 181 199 233 167 147 155 156 134 137 168 96 92 106 125 158 185 295 326 103 122 193 213 239 201 177 171 161 162 197 202 171 192 133 129 264 273 261 289 59 118 142 140 149 158 165 162 146 143 141 131 120 116
139 115 119 151 163 164 164 174 182 192 195 155 119 88 128 136 138 147 149 139 127 107 124 146 160 167 168 165 157 161 169 172 181 185 182 172 170 204 210 160 141 149 150 134 155 156 96 103 107 90 61 349 308 274 360 22 137 231 244 214 184 191 189 171 171 159 152 181 150 134 251 267 266 254 85 82 84 88 360 287 179 151 128 125 127 124 120 119
114 91 97 154 171 181 184 179 183 187 179 155 131 119 123 121 136 152 163 160 152 149 131 128 154 160 160 154 151 165 174 174 185 189 173 158 175 309 226 157 147 152 162 169 173 170 148 137 120 108 103 20 351 329 292 242 207 225 241 201 189 185 158 123 116 124 155 200 167 155 237 258 267 290 92 93 90 119 269 257 202 159 127 124 126 127 135 140
128 76 56 157 180 209 211 184 186 178 168 157 150 152 142 89 83 153 157 151 138 140 131 105 136 126 116 130 129 164 180 177 170 179 158 140 172 327 335 156 158 163 176 166 156 154 165 159 144 149 163 179 195 209 218 205 184 238 262 183 186 178 159 161 164 125 196 219 167 161 236 248 252 73 116 214 166 206 244 220 205 214 157 128 130 143 152 148
142 109 110 145 209 265 268 346 219 179 168 162 160 162 155 138 37 345 132 145 298 120 117 101 123 110 116 143 134 164 189 180 108 154 154 123 126 327 357 73 138 140 125 144 146 139 144 173 177 183 193 197 198 193 131 114 133 196 215 195 189 195 181 169 142 153 198 207 183 209 236 250 257 211 194 219 199 205 218 199 201 227 218 152 130 143 153 138
129 138 152 152 169 211 231 272 223 196 178 172 170 168 164 152 138 62 26 88 218 140 97 86 147 145 155 162 151 169 186 164 100 150 155 119 97 63 15 27 55 31 49 144 150 129 125 197 199 195 213 216 200 153 134 136 161 197 207 199 192 199 185 168 186 206 198 181 222 233 225 242 252 221 190 210 209 211 218 200 199 210 206 179 141 139 139 123
94 143 166 154 169 192 205 200 193 192 180 175 169 163 166 158 154 165 126 43 183 176 120 119 181 178 170 165 159 161 168 152 136 164 150 119 119 103 29 18 40 355 346 137 145 105 131 200 209 195 222 237 217 150 153 159 176 190 196 199 196 193 185 190 213 219 197 182 226 229 214 226 244 227 196 201 196 202 214 203 193 187 177 161 147 150 147 136
76 108 107 348 208 183 167 146 165 182 178 175 173 169 172 171 170 170 143 118 174 209 182 172 188 187 174 168 161 155 166 170 175 179 140 119 136 126 87 40 58 342 1 109 132 9 130 197 203 173 217 247 215 168 163 164 173 185 195 198 193 192 195 203 218 223 213 211 230 234 225 233 245 231 206 201 193 195 197 174 167 174 173 165 161 164 159 151
76 105 145 75 90 156 137 118 144 173 177 178 182 180 180 182 178 170 153 162 173 188 198 189 184 182 177 176 175 176 186 182 169 163 142 128 144 157 154 164 151 95 33 120 151 303 150 196 178 147 201 250 208 194 197 173 164 185 202 194 186 191 202 211 221 224 221 226 240 251 259 260 254 231 209 211 186 160 152 162 178 185 178 166 163 168 169 164
24 339 123 122 100 143 151 145 156 167 173 185 189 180 183 188 181 167 165 188 180 177 188 184 171 172 176 184 195 199 194 184 166 164 161 154 167 182 174 162 152 149 167 164 153 163 173 194 158 136 177 236 207 200 204 151 131 191 213 194 189 192 202 211 218 220 214 221 243 256 261 256 249 200 201 227 177 159 175 180 181 180 171 168 172 182 185 173
2 353 355 101 92 134 158 149 159 176 181 188 185 175 180 184 174 163 162 204 197 178 180 170 156 160 178 194 206 202 171 157 153 160 160 148 154 159 144 152 155 154 162 159 139 159 161 156 149 148 176 251 242 183 160 104 95 228 224 205 200 199 203 208 218 223 213 206 223 233 235 245 244 130 204 237 185 185 202 184 166 168 176 183 185 185 184 169